Change the Weather History Date:

Tuesday, July 2, 2013

  Actual Average Record
Temperature  
Mean Temperature 71 °F 63 °F  
Max Temperature 80 °F 71 °F 95 °F (1970)
Min Temperature 61 °F 55 °F 50 °F (2003)
Degree Days  
Heating Degree Days 0 3  
Month to date heating degree days 0 6  
Since 1 June heating degree days 60 109  
Since 1 July heating degree days 0 6  
Cooling Degree Days 6 1  
Month to date cooling degree days 12 2  
Year to date cooling degree days 88 36  
Since 1 June cooling degree days 47 20  
Growing Degree Days 20 (Base 50)    
Moisture  
Dew Point 62 °F    
Average Humidity 78    
Maximum Humidity 100    
Minimum Humidity 56    
Precipitation  
Precipitation 0.00 in 0.00 in 0.19 in (1980)
Month to date precipitation 0.00 0.00  
Year to date precipitation 2.82 13.22  
Since 1 July precipitation 0.00 0.00  
Sea Level Pressure  
Sea Level Pressure 29.90 in    
Wind  
Wind Speed 11 mph (NW)    
Max Wind Speed 24 mph    
Max Gust Speed 29 mph    
Visibility 10 miles    
Events      
T = Trace of Precipitation, MM = Missing Value Source: NWS Daily Summary

Daily Weather History Graph

Daily Weather History Graph

Search for Another Location

Airport or City:

Trip Planner

Search our weather history database for the weather conditions in past years. The results will help you decide how hot, cold, wet, or windy it might be!

Date:

Astronomy

Jul. 02, 2013 Rise Set
Actual Time 5:51 AM PDT 8:34 PM PDT
Civil Twilight 5:20 AM PDT 9:05 PM PDT
Nautical Twilight 4:41 AM PDT 9:44 PM PDT
Astronomical Twilight 3:57 AM PDT 10:28 PM PDT
Moon 1:54 AM PDT (7/2) 3:56 PM PDT (7/2)
Length of Visible Light 15h 45m
Length of Day
14h 42m
Waning Crescent, 25% of the Moon is Illuminated
Jul 2
Waning Crescent
Jul 8
New
Jul 15
First Quarter
Jul 22
Full
Jul 29
Last Quarter

Hourly Weather History & Observations

Time (PDT) Temp. Dew Point Humidity Pressure Visibility Wind Dir Wind Speed Gust Speed Precip Events Conditions
12:53 AM 64.0 °F 62.1 °F 93% 29.86 in 10.0 mi NW 4.6 mph - N/A   Scattered Clouds
1:53 AM 64.9 °F 61.0 °F 87% 29.85 in 10.0 mi NW 5.8 mph - N/A   Mostly Cloudy
2:53 AM 64.0 °F 62.1 °F 93% 29.84 in 10.0 mi NW 6.9 mph - N/A   Mostly Cloudy
3:53 AM 64.0 °F 62.1 °F 93% 29.85 in 10.0 mi WNW 9.2 mph - N/A   Overcast
4:53 AM 63.0 °F 62.1 °F 97% 29.86 in 10.0 mi NW 8.1 mph - N/A   Mostly Cloudy
5:53 AM 63.0 °F 62.1 °F 97% 29.86 in 10.0 mi NW 9.2 mph - N/A   Scattered Clouds
7:53 AM 66.0 °F 62.1 °F 87% 29.89 in 10.0 mi WNW 8.1 mph - N/A   Partly Cloudy
8:53 AM 66.9 °F 62.1 °F 84% 29.91 in 10.0 mi NW 6.9 mph - N/A   Partly Cloudy
9:53 AM 69.1 °F 62.1 °F 78% 29.91 in 10.0 mi WNW 9.2 mph - N/A   Partly Cloudy
10:53 AM 71.1 °F 62.1 °F 73% 29.91 in 10.0 mi NW 8.1 mph - N/A   Partly Cloudy
11:53 AM 75.0 °F 60.1 °F 60% 29.90 in 10.0 mi West 9.2 mph - N/A   Scattered Clouds
12:53 PM 77.0 °F 61.0 °F 58% 29.90 in 10.0 mi West 10.4 mph - N/A   Scattered Clouds
1:53 PM 78.1 °F 62.1 °F 58% 29.89 in 10.0 mi WNW 12.7 mph - N/A   Scattered Clouds
2:53 PM 79.0 °F 62.1 °F 56% 29.88 in 10.0 mi NW 17.3 mph - N/A   Scattered Clouds
3:53 PM 73.9 °F 62.1 °F 66% 29.89 in 10.0 mi NW 19.6 mph 25.3 mph N/A   Mostly Cloudy
4:53 PM 70.0 °F 62.1 °F 76% 29.91 in 10.0 mi NW 19.6 mph 26.5 mph N/A   Mostly Cloudy
5:53 PM 66.9 °F 62.1 °F 84% 29.90 in 10.0 mi NW 19.6 mph 27.6 mph N/A   Mostly Cloudy
6:53 PM 64.9 °F 61.0 °F 87% 29.90 in 10.0 mi NW 18.4 mph 24.2 mph N/A   Mostly Cloudy
7:53 PM 63.0 °F 61.0 °F 93% 29.91 in 10.0 mi NW 16.1 mph - N/A   Mostly Cloudy
8:53 PM 62.1 °F 62.1 °F 100% 29.91 in 10.0 mi NW 13.8 mph - N/A   Mostly Cloudy
9:16 PM 62.6 °F 62.6 °F 100% 29.92 in 10.0 mi NW 15.0 mph - N/A   Mostly Cloudy
9:34 PM 62.6 °F 62.6 °F 100% 29.92 in 10.0 mi NW 15.0 mph - N/A   Scattered Clouds
9:39 PM 62.6 °F 62.6 °F 100% 29.92 in 10.0 mi NW 11.5 mph 19.6 mph N/A   Mostly Cloudy
9:53 PM 62.1 °F 62.1 °F 100% 29.92 in 10.0 mi NW 12.7 mph - N/A   Mostly Cloudy
10:53 PM 62.1 °F 62.1 °F 100% 29.93 in 10.0 mi NW 8.1 mph - N/A   Mostly Cloudy
11:53 PM 62.1 °F 62.1 °F 100% 29.94 in 10.0 mi WNW 9.2 mph - N/A   Overcast